Honolulu, HI

2:52 PM HST on April 25, 2017 (GMT -1000)
Honolulu International

Weather History for PHNL - January, 2014

Change the Weather History Date:

Saturday, January 11, 2014

  Actual Average Record
Temperature  
Mean Temperature 73 °F 73 °F  
Max Temperature 79 °F 80 °F 85 °F (1996)
Min Temperature 66 °F 66 °F 59 °F (1998)
Degree Days  
Heating Degree Days 0 0  
Month to date heating degree days 0 0  
Since 1 July heating degree days 0 0  
Cooling Degree Days 8 8  
Month to date cooling degree days 88 90  
Year to date cooling degree days 88 90  
Growing Degree Days 22 (Base 50)    
Moisture  
Dew Point 66 °F    
Average Humidity 78    
Maximum Humidity 93    
Minimum Humidity 62    
Precipitation  
Precipitation 0.09 in 0.07 in 2.57 in (1975)
Month to date precipitation 1.45 0.99  
Year to date precipitation 1.45 0.99  
Snow  
Snow 0.00 in - - ()
Month to date snowfall 0.0  
Since 1 July snowfall 0.0  
Snow Depth 0.00 in    
Sea Level Pressure  
Sea Level Pressure 29.93 in    
Wind  
Wind Speed 4 mph (NNW)    
Max Wind Speed 14 mph    
Max Gust Speed 17 mph    
Visibility 9 miles    
Events Rain , Thunderstorm    
T = Trace of Precipitation, MM = Missing Value Source: NWS Daily Summary

Daily Weather History Graph

Daily Weather History Graph

Search for Another Location

Airport or City:

Trip Planner

Search our weather history database for the weather conditions in past years. The results will help you decide how hot, cold, wet, or windy it might be!

Date:

Astronomy

Jan. 11, 2014 Rise Set
Actual Time 7:11 AM HST 6:08 PM HST
Civil Twilight 6:47 AM HST 6:32 PM HST
Nautical Twilight 6:20 AM HST 6:59 PM HST
Astronomical Twilight 5:53 AM HST 7:26 PM HST
Moon 2:55 PM HST (1/11) 3:32 AM HST (1/11)
Length of Visible Light 11h 44m
Length of Day
10h 56m
Waxing Gibbous, 84% of the Moon is Illuminated
Jan 11
Waxing Gibbous
Jan 15
Full
Jan 23
Last Quarter
Jan 30
New
Feb 6
First Quarter

Hourly Weather History & Observations

Time (HST) Temp. Dew Point Humidity Pressure Visibility Wind Dir Wind Speed Gust Speed Precip Events Conditions
12:53 AM 69.1 °F 64.0 °F 84% 29.92 in 10.0 mi Calm Calm - N/A   Partly Cloudy
1:53 AM 66.9 °F 64.0 °F 90% 29.91 in 10.0 mi NW 3.5 mph - N/A   Partly Cloudy
2:53 AM 66.9 °F 64.0 °F 90% 29.90 in 10.0 mi North 3.5 mph - N/A   Partly Cloudy
3:53 AM 66.9 °F 64.0 °F 90% 29.90 in 10.0 mi North 5.8 mph - N/A   Scattered Clouds
4:53 AM 66.9 °F 63.0 °F 87% 29.90 in 10.0 mi NNE 3.5 mph - N/A   Scattered Clouds
5:53 AM 66.0 °F 63.0 °F 90% 29.90 in 10.0 mi North 4.6 mph - N/A   Scattered Clouds
6:53 AM 68.0 °F 64.0 °F 87% 29.91 in 10.0 mi North 3.5 mph - N/A   Scattered Clouds
7:53 AM 68.0 °F 64.0 °F 87% 29.92 in 10.0 mi NNW 5.8 mph - N/A   Partly Cloudy
8:53 AM 73.0 °F 66.0 °F 79% 29.95 in 10.0 mi North 4.6 mph - N/A   Scattered Clouds
9:53 AM 75.9 °F 66.0 °F 71% 29.97 in 10.0 mi Calm Calm - N/A   Scattered Clouds
10:53 AM 78.1 °F 64.9 °F 64% 29.97 in 10.0 mi WSW 6.9 mph - N/A   Mostly Cloudy
11:53 AM 75.9 °F 66.9 °F 74% 29.96 in 10.0 mi SSE 11.5 mph - N/A   Mostly Cloudy
12:53 PM 72.0 °F 64.9 °F 78% 29.94 in 5.0 mi NNE 3.5 mph - 0.01 in Rain Light Rain
1:28 PM 69.8 °F 68.0 °F 94% 29.93 in 5.0 mi SW 8.1 mph - 0.05 in Rain Rain
1:53 PM 71.1 °F 68.0 °F 90% 29.92 in 10.0 mi West 10.4 mph - 0.05 in Rain Light Rain
2:09 PM 69.8 °F 66.2 °F 88% 29.92 in 8.0 mi WNW 11.5 mph - 0.00 in Rain , Thunderstorm Light Thunderstorms and Rain
2:32 PM 69.8 °F 66.2 °F 88% 29.91 in 4.0 mi NNW 10.4 mph - 0.02 in Rain Heavy Rain
2:36 PM 69.8 °F 66.2 °F 88% 29.92 in 4.0 mi NNW 10.4 mph - 0.03 in Rain Light Rain
2:37 PM 69.8 °F 66.2 °F 88% 29.92 in 4.0 mi NNW 9.2 mph - 0.03 in Rain Light Rain
2:53 PM 70.0 °F 66.9 °F 90% 29.91 in 10.0 mi NNE 6.9 mph - 0.03 in   Overcast
3:53 PM 71.1 °F 66.0 °F 84% 29.90 in 10.0 mi NNE 6.9 mph - N/A   Mostly Cloudy
4:53 PM 73.9 °F 66.0 °F 76% 29.91 in 10.0 mi North 4.6 mph - N/A   Mostly Cloudy
5:53 PM 73.0 °F 66.0 °F 79% 29.92 in 10.0 mi North 3.5 mph - N/A   Mostly Cloudy
6:53 PM 72.0 °F 66.0 °F 81% 29.92 in 10.0 mi North 4.6 mph - N/A   Scattered Clouds
7:53 PM 71.1 °F 66.9 °F 87% 29.95 in 10.0 mi NNW 3.5 mph - N/A   Partly Cloudy
8:53 PM 71.1 °F 66.9 °F 87% 29.96 in 10.0 mi Calm Calm - N/A   Mostly Cloudy
9:53 PM 69.1 °F 66.0 °F 90% 29.96 in 10.0 mi Calm Calm - N/A   Scattered Clouds
10:53 PM 69.1 °F 66.0 °F 90% 29.96 in 10.0 mi Calm Calm - N/A   Scattered Clouds
11:53 PM 68.0 °F 66.0 °F 93% 29.96 in 10.0 mi Calm Calm - N/A   Scattered Clouds